<?xml version="1.0" encoding="UTF-8" standalone="no" ?>
<gpx xmlns="http://www.topografix.com/GPX/1/1" xmlns:xsi="http://www.w3.org/2001/XMLSchema-instance" xsi:schemaLocation="http://www.topografix.com/GPX/1/1 http://www.topografix.com/GPX/1/1/gpx.xsd" version="1.1" creator="VisuGPX - https://www.visugpx.com">
  <metadata>
    <name>Aravis, séjour du RCMF</name>
    <desc><![CDATA[Aravis, séjour du RCMF]]></desc>
  </metadata>
  <trk>
    <name><![CDATA[Fretes]]></name>
    <trkseg>
      <trkpt lat="45.97191" lon="6.35105">
        <ele>1392.1</ele>
        <time>2003-02-06T13:08:28Z</time>
      </trkpt>
      <trkpt lat="45.97251" lon="6.35006">
        <ele>1389.6</ele>
        <time>2003-02-06T13:08:28Z</time>
      </trkpt>
      <trkpt lat="45.97236" lon="6.34911">
        <ele>1384.8</ele>
        <time>2003-02-06T13:08:28Z</time>
      </trkpt>
      <trkpt lat="45.9712" lon="6.34764">
        <ele>1390.7</ele>
        <time>2003-02-06T13:08:28Z</time>
      </trkpt>
      <trkpt lat="45.96972" lon="6.34624">
        <ele>1388.7</ele>
        <time>2003-02-06T13:08:28Z</time>
      </trkpt>
      <trkpt lat="45.9684" lon="6.34217">
        <ele>1401.2</ele>
        <time>2003-02-06T13:08:28Z</time>
      </trkpt>
      <trkpt lat="45.96688" lon="6.33931">
        <ele>1412</ele>
        <time>2003-02-06T13:08:28Z</time>
      </trkpt>
      <trkpt lat="45.96517" lon="6.33405">
        <ele>1434.3</ele>
        <time>2003-02-06T13:08:28Z</time>
      </trkpt>
      <trkpt lat="45.96688" lon="6.33221">
        <ele>1449.4</ele>
        <time>2003-02-06T13:08:28Z</time>
      </trkpt>
      <trkpt lat="45.96788" lon="6.32892">
        <ele>1539.8</ele>
        <time>2003-02-06T13:08:28Z</time>
      </trkpt>
      <trkpt lat="45.96824" lon="6.32878">
        <ele>1549.1</ele>
        <time>2003-02-06T13:08:28Z</time>
      </trkpt>
      <trkpt lat="45.96829" lon="6.32814">
        <ele>1547.2</ele>
        <time>2003-02-06T13:08:28Z</time>
      </trkpt>
      <trkpt lat="45.96787" lon="6.32727">
        <ele>1542.2</ele>
        <time>2003-02-06T13:08:28Z</time>
      </trkpt>
      <trkpt lat="45.96811" lon="6.3269">
        <ele>1538.9</ele>
        <time>2003-02-06T13:08:28Z</time>
      </trkpt>
      <trkpt lat="45.96841" lon="6.32718">
        <ele>1542.1</ele>
        <time>2003-02-06T13:08:28Z</time>
      </trkpt>
      <trkpt lat="45.96893" lon="6.32709">
        <ele>1548.5</ele>
        <time>2003-02-06T13:08:28Z</time>
      </trkpt>
      <trkpt lat="45.9693" lon="6.32631">
        <ele>1550.4</ele>
        <time>2003-02-06T13:08:28Z</time>
      </trkpt>
      <trkpt lat="45.97048" lon="6.32607">
        <ele>1565</ele>
        <time>2003-02-06T13:08:28Z</time>
      </trkpt>
      <trkpt lat="45.97119" lon="6.32561">
        <ele>1577.9</ele>
        <time>2003-02-06T13:08:28Z</time>
      </trkpt>
      <trkpt lat="45.97175" lon="6.32587">
        <ele>1582.9</ele>
        <time>2003-02-06T13:08:28Z</time>
      </trkpt>
      <trkpt lat="45.97283" lon="6.32511">
        <ele>1581.7</ele>
        <time>2003-02-06T13:08:28Z</time>
      </trkpt>
      <trkpt lat="45.97348" lon="6.32523">
        <ele>1581.1</ele>
        <time>2003-02-06T13:08:28Z</time>
      </trkpt>
      <trkpt lat="45.97677" lon="6.32069">
        <ele>1526.7</ele>
        <time>2003-02-06T13:08:28Z</time>
      </trkpt>
      <trkpt lat="45.97732" lon="6.3205">
        <ele>1513.8</ele>
        <time>2003-02-06T13:08:28Z</time>
      </trkpt>
      <trkpt lat="45.97812" lon="6.32146">
        <ele>1521.2</ele>
        <time>2003-02-06T13:08:28Z</time>
      </trkpt>
      <trkpt lat="45.97861" lon="6.32108">
        <ele>1492.2</ele>
        <time>2003-02-06T13:08:28Z</time>
      </trkpt>
      <trkpt lat="45.97866" lon="6.32024">
        <ele>1467.7</ele>
        <time>2003-02-06T13:08:28Z</time>
      </trkpt>
      <trkpt lat="45.97798" lon="6.31829">
        <ele>1432</ele>
        <time>2003-02-06T13:08:28Z</time>
      </trkpt>
      <trkpt lat="45.97853" lon="6.31823">
        <ele>1405</ele>
        <time>2003-02-06T13:08:28Z</time>
      </trkpt>
      <trkpt lat="45.98009" lon="6.3187">
        <ele>1357.5</ele>
        <time>2003-02-06T13:08:28Z</time>
      </trkpt>
      <trkpt lat="45.98442" lon="6.32664">
        <ele>1370.4</ele>
        <time>2003-02-06T13:08:28Z</time>
      </trkpt>
      <trkpt lat="45.98691" lon="6.3296">
        <ele>1380.9</ele>
        <time>2003-02-06T13:08:28Z</time>
      </trkpt>
      <trkpt lat="45.98924" lon="6.33426">
        <ele>1405.1</ele>
        <time>2003-02-06T13:08:28Z</time>
      </trkpt>
      <trkpt lat="45.99129" lon="6.33754">
        <ele>1447.7</ele>
        <time>2003-02-06T13:08:28Z</time>
      </trkpt>
      <trkpt lat="45.99219" lon="6.33822">
        <ele>1461.6</ele>
        <time>2003-02-06T13:08:28Z</time>
      </trkpt>
      <trkpt lat="45.99273" lon="6.33952">
        <ele>1477.9</ele>
        <time>2003-02-06T13:08:28Z</time>
      </trkpt>
      <trkpt lat="45.99322" lon="6.34217">
        <ele>1526.7</ele>
        <time>2003-02-06T13:08:28Z</time>
      </trkpt>
      <trkpt lat="45.99477" lon="6.34801">
        <ele>1604</ele>
        <time>2003-02-06T13:08:28Z</time>
      </trkpt>
      <trkpt lat="46.00016" lon="6.35412">
        <ele>1569.4</ele>
        <time>2003-02-06T13:08:28Z</time>
      </trkpt>
      <trkpt lat="46.00328" lon="6.36001">
        <ele>1552.3</ele>
        <time>2003-02-06T13:08:28Z</time>
      </trkpt>
      <trkpt lat="46.00304" lon="6.36154">
        <ele>1549</ele>
        <time>2003-02-06T13:08:28Z</time>
      </trkpt>
      <trkpt lat="46.00434" lon="6.365">
        <ele>1550.5</ele>
        <time>2003-02-06T13:08:28Z</time>
      </trkpt>
      <trkpt lat="46.00385" lon="6.36551">
        <ele>1549.1</ele>
        <time>2003-02-06T13:08:28Z</time>
      </trkpt>
      <trkpt lat="46.00178" lon="6.36096">
        <ele>1564.7</ele>
        <time>2003-02-06T13:08:28Z</time>
      </trkpt>
      <trkpt lat="46.00113" lon="6.36085">
        <ele>1572.7</ele>
        <time>2003-02-06T13:08:28Z</time>
      </trkpt>
      <trkpt lat="46.00045" lon="6.36035">
        <ele>1587</ele>
        <time>2003-02-06T13:08:28Z</time>
      </trkpt>
      <trkpt lat="46.00022" lon="6.36107">
        <ele>1616.7</ele>
        <time>2003-02-06T13:08:28Z</time>
      </trkpt>
      <trkpt lat="45.99937" lon="6.36091">
        <ele>1656.1</ele>
        <time>2003-02-06T13:08:28Z</time>
      </trkpt>
      <trkpt lat="45.99925" lon="6.3611">
        <ele>1666.7</ele>
        <time>2003-02-06T13:08:28Z</time>
      </trkpt>
      <trkpt lat="45.99905" lon="6.36109">
        <ele>1670.3</ele>
        <time>2003-02-06T13:08:28Z</time>
      </trkpt>
      <trkpt lat="45.9991" lon="6.36222">
        <ele>1647.4</ele>
        <time>2003-02-06T13:08:28Z</time>
      </trkpt>
      <trkpt lat="45.99848" lon="6.36382">
        <ele>1612.3</ele>
        <time>2003-02-06T13:08:28Z</time>
      </trkpt>
      <trkpt lat="45.99817" lon="6.3638">
        <ele>1596.7</ele>
        <time>2003-02-06T13:08:28Z</time>
      </trkpt>
      <trkpt lat="45.99596" lon="6.36829">
        <ele>1524.4</ele>
        <time>2003-02-06T13:08:28Z</time>
      </trkpt>
      <trkpt lat="45.99399" lon="6.37109">
        <ele>1462.2</ele>
        <time>2003-02-06T13:08:28Z</time>
      </trkpt>
      <trkpt lat="45.99306" lon="6.37176">
        <ele>1461.3</ele>
        <time>2003-02-06T13:08:28Z</time>
      </trkpt>
      <trkpt lat="45.99207" lon="6.37185">
        <ele>1441.7</ele>
        <time>2003-02-06T13:08:28Z</time>
      </trkpt>
      <trkpt lat="45.99117" lon="6.37375">
        <ele>1419.1</ele>
        <time>2003-02-06T13:08:28Z</time>
      </trkpt>
      <trkpt lat="45.98962" lon="6.37228">
        <ele>1433.2</ele>
        <time>2003-02-06T13:08:28Z</time>
      </trkpt>
      <trkpt lat="45.98728" lon="6.36846">
        <ele>1387.1</ele>
        <time>2003-02-06T13:08:28Z</time>
      </trkpt>
      <trkpt lat="45.98588" lon="6.36529">
        <ele>1366.4</ele>
        <time>2003-02-06T13:08:28Z</time>
      </trkpt>
      <trkpt lat="45.98488" lon="6.36499">
        <ele>1356.5</ele>
        <time>2003-02-06T13:08:28Z</time>
      </trkpt>
      <trkpt lat="45.98409" lon="6.36393">
        <ele>1363.3</ele>
        <time>2003-02-06T13:08:28Z</time>
      </trkpt>
      <trkpt lat="45.98186" lon="6.35879">
        <ele>1374.9</ele>
        <time>2003-02-06T13:08:28Z</time>
      </trkpt>
      <trkpt lat="45.98137" lon="6.35807">
        <ele>1374.2</ele>
        <time>2003-02-06T13:08:28Z</time>
      </trkpt>
      <trkpt lat="45.98017" lon="6.35559">
        <ele>1376.3</ele>
        <time>2003-02-06T13:08:28Z</time>
      </trkpt>
      <trkpt lat="45.97758" lon="6.35133">
        <ele>1387</ele>
        <time>2003-02-06T13:08:28Z</time>
      </trkpt>
      <trkpt lat="45.97548" lon="6.34999">
        <ele>1395.2</ele>
        <time>2003-02-06T13:08:28Z</time>
      </trkpt>
      <trkpt lat="45.97253" lon="6.35009">
        <ele>1390</ele>
        <time>2003-02-06T13:08:28Z</time>
      </trkpt>
      <trkpt lat="45.97193" lon="6.35102">
        <ele>1393.2</ele>
        <time>2003-02-06T13:08:28Z</time>
      </trkpt>
    </trkseg>
  </trk>
</gpx>